Location: Pine Mountain Observatory
(43.7910°N, 120.9377°W)
Time: 08:23:51
(UTC-07:00)

Daily predictions for brighter satellites

Satellite Brightness Start Highest point End
(mag) Time Altitude Azimuth Time Altitude Azimuth Time Altitude Azimuth
SJ-11-01 4.4 21:02:17 10° SSE 21:07:01 86° WSW 21:11:48 10° NNW
Resurs 1-3 4.0 21:07:51 10° S 21:12:12 65° W 21:16:35 10° NNW
Spot 2 Rocket 3.5 21:07:38 10° SSE 21:12:41 87° ENE 21:17:45 10° NNW
Cosmos 468 Rocket 4.1 21:09:55 10° SSW 21:15:11 90° SE 21:20:27 10° NNE
Cosmos 1937 Rocket 3.5 21:10:45 10° NNW 21:15:54 75° ENE 21:21:02 10° SSE
ATLAS CENTAUR R/B 4.2 21:09:49 10° SSW 21:16:09 75° SE 21:35:54 10° NE
Cosmos 1455 Rocket 3.8 21:13:04 10° N 21:17:09 37° ENE 21:21:14 10° SE
Timation 2 Rocket 3.9 21:12:12 10° SSW 21:18:10 88° ESE 21:24:18 10° NNE
deb Kosmos-1763 4.2 21:14:39 10° SSW 21:18:22 80° WNW 21:22:05 10° NNE
Cosmos 1763 Rocket 3.6 21:14:14 10° S 21:19:27 63° ESE 21:24:40 10° NNE
SPOT 5 4.5 21:17:45 10° ESE 21:20:50 19° ENE 21:24:00 10° NNE
Terra 4.1 21:19:55 10° ENE 21:20:58 11° ENE 21:22:01 10° NE
Abrixas rocket 2.5 21:18:06 10° WSW 21:21:18 67° NNW 21:24:32 10° ENE
Cosmos 2298 Rocket 4.1 21:16:43 10° NNW 21:22:01 68° ENE 21:27:16 10° SSE
USA 186 4.1 21:19:43 10° SSW 21:22:29 25° W 21:25:22 10° NW
ERS-2 3.5 21:21:52 10° SSW 21:25:18 37° W 21:28:46 10° NNW
Cosmos 841 Rocket 3.7 21:21:03 10° S 21:26:05 50° ESE 21:31:11 10° NNE
Cosmos 1666 3.3 21:24:15 10° NNW 21:28:04 58° W 21:31:51 10° S
ISS -1.8 21:25:38 10° W 21:28:35 30° NNW 21:31:32 10° NE
Tiangong 2 1.0 21:25:45 10° W 21:28:54 72° S 21:32:02 10° E
Cosmos 1975 3.8 21:25:33 10° NNW 21:29:27 47° W 21:33:18 10° SSW
Cosmos 1975 Rocket 3.1 21:25:21 10° S 21:29:41 86° W 21:34:01 10° N
Shenzhou-11 Module 2.4 21:27:28 10° W 21:30:21 46° SSW 21:32:39 14° SE
USA 32 4.2 21:29:27 10° N 21:34:39 59° E 21:39:48 10° SSE
Cosmos 2360 Rocket 2.5 21:30:15 10° NNW 21:35:50 57° ENE 21:40:45 13° SE
Cosmos 1980 Rocket 4.5 21:34:00 10° NW 21:37:58 20° W 21:41:57 10° SW
Cosmos 2084 3.9 21:34:11 10° SW 21:38:27 63° NW 21:42:29 10° NNE
Cosmos 2219 Rocket 3.9 21:34:31 10° N 21:38:43 21° NE 21:42:55 10° E
Meteor 2-20 4.5 21:34:56 10° N 21:41:07 82° E 21:47:17 10° S
Cosmos 1743 4.0 21:40:06 10° NNW 21:43:43 40° W 21:47:17 10° SSW
BREEZE-M R/B 3.4 21:39:53 10° W 21:43:52 46° NNW 21:46:26 10° NE
Cosmos 1544 Rocket 3.6 21:40:17 10° N 21:44:44 76° E 21:48:54 12° SSE
Meteor 2-20 Rocket 4.5 21:39:47 10° N 21:45:56 70° E 21:51:48 11° SSE
USA 234 3.2 21:40:12 10° NE 21:46:45 72° SE 21:53:19 10° SW
Cosmos 292 Rocket 3.7 21:42:33 10° SSW 21:47:17 72° ESE 21:52:02 10° NNE
Iridium 2 4.1 21:45:05 10° SSW 21:48:52 66° W 21:52:42 10° N
Meteor 2-9 Rocket 4.2 21:45:19 10° NNW 21:50:41 81° W 21:56:08 10° S
MetOp-A 4.1 21:46:14 10° SSE 21:51:32 89° ENE 21:56:56 10° NNW
ERS-1 Rocket 3.1 21:47:43 15° SSE 21:51:52 60° ENE 21:56:49 10° N
Cosmos 1356 3.4 21:49:20 10° S 21:52:42 62° E 21:56:10 10° NNE
Helios 1B rocket 3.8 21:51:00 10° NE 21:54:12 21° E 21:55:37 18° ESE
SJ 16-02 1.8 21:50:12 10° N 21:54:31 48° ENE 21:57:27 19° SE
NOSS 3-2 (C) 4.5 21:52:36 10° WSW 21:58:26 51° NW 22:04:58 10° NNE
Cosmos 1536 Rocket 3.6 21:58:59 12° S 22:03:05 67° E 22:07:32 10° NNE
Aureole 2 Rocket 2.9 22:02:37 10° NW 22:05:23 40° WSW 22:07:03 19° SSW
Cosmos 2333 Rocket 3.5 22:00:48 10° N 22:05:46 29° NE 22:09:41 14° ESE
Resurs 01 Rocket 4.1 22:03:59 10° SW 22:07:05 19° W 22:10:12 10° NW
COSMOS 2428 3.3 22:03:30 10° NNW 22:08:57 45° ENE 22:12:38 20° ESE
Meteor 1-23 Rocket 4.1 22:04:31 10° S 22:10:04 76° E 22:15:38 10° NNE
SPOT 1/Viking Rocket 3.8 22:06:57 20° SE 22:10:23 54° ENE 22:15:25 10° N
Lacrosse 5 rocket 1.3 22:07:08 10° NW 22:11:29 80° SW 22:13:45 26° SE
SL-08 RB Rocket 3.9 22:08:52 15° S 22:12:34 70° W 22:17:09 10° NNW
H-2A R/B 2.1 22:09:40 15° S 22:13:49 71° WSW 22:18:54 10° NNW
CENTAUR R/B 2.7 22:07:52 10° SW 22:13:53 79° NW 22:20:53 10° NE
Cosmos 1515 3.7 22:10:33 13° S 22:14:01 84° W 22:17:52 10° N
CZ-4C R/B 3.3 22:08:04 10° NNW 22:15:03 58° NE 22:20:58 18° ESE
Cosmos 1125 Rocket 3.6 22:09:56 10° NNW 22:15:11 64° ENE 22:18:20 24° SE
Cosmos 1833 4.3 22:11:29 10° SSW 22:17:14 79° WNW 22:22:57 10° NNE
Meteor 2-4 Rocket 4.4 22:14:03 10° SSW 22:19:23 54° WNW 22:24:54 10° N
ARGOS 4.0 22:19:27 11° S 22:24:30 47° W 22:29:44 10° NNW
Cosmos 2297 Rocket 4.0 22:26:10 13° E 22:26:14 13° E 22:28:39 10° ENE
Cosmos 1092 Rocket 4.3 22:20:43 10° N 22:26:56 53° ENE 22:30:34 25° SE
Nadezhda 4 Rocket 4.0 22:22:07 10° N 22:28:27 78° E 22:32:40 23° SSE
Cosmos 2227 Rocket 3.8 22:29:29 16° ESE 22:29:46 16° E 22:33:03 10° ENE
Cosmos 2322 Rocket 4.0 22:26:06 10° NW 22:30:25 23° W 22:34:46 10° SSW
Cosmos 836 Rocket 4.4 22:25:52 10° SSW 22:31:03 83° ESE 22:36:19 10° NNE
Cosmos 2322 3.8 22:25:39 10° NNW 22:31:23 73° WSW 22:34:53 24° SSE
DMSP B5D2-2 4.0 22:28:20 10° NNE 22:33:39 86° ESE 22:38:01 15° SSW
Cosmos 2237 Rocket 3.6 22:30:02 10° N 22:34:54 28° NE 22:38:17 16° E
CARTOSAT-1 3.9 22:33:20 31° SE 22:35:04 53° ENE 22:39:17 10° N
Cosmos 1340 Rocket 4.5 22:31:28 10° SW 22:35:09 33° WNW 22:38:53 10° N
Landsat 7 3.8 22:36:45 30° SSE 22:39:07 80° ENE 22:43:54 10° N
SL-16 R/B 4.4 22:36:48 10° WNW 22:40:34 18° W 22:44:19 10° SW
Cosmos 1025 Rocket 2.9 22:41:10 29° S 22:43:21 82° E 22:47:45 10° N
Cosmos 1066 Rocket 4.1 22:40:28 27° S 22:43:26 66° E 22:48:51 10° NNE
Cosmos 1544 3.2 22:45:37 10° N 22:49:18 60° E 22:49:59 49° SE
Cosmos 540 Rocket 4.2 22:44:45 10° SW 22:49:46 52° WNW 22:54:51 10° NNE
Cosmos 1606 Rocket 3.9 22:47:52 10° N 22:52:13 50° ENE 22:53:25 39° SE
Cosmos 2026 Rocket 4.2 22:49:09 10° N 22:55:11 54° ENE 22:57:49 32° SE
Cosmos 1766 3.8 22:52:50 10° N 22:56:39 42° ENE 22:57:15 39° ESE
Terra 1.7 22:56:06 39° SSE 22:57:54 81° ENE 23:02:40 10° NNW
Abrixas rocket 3.8 22:55:03 10° WNW 22:58:02 34° N 23:00:35 13° ENE
SPOT 5 3.3 22:56:22 27° SSW 22:58:30 48° W 23:02:59 10° NNW
Cosmos 2219 3.2 22:58:22 26° S 23:01:40 70° ESE 23:07:24 10° NNE
Spot 1 3.9 23:00:52 44° S 23:02:04 75° WSW 23:06:09 10° NNW
Tiangong 2 2.0 23:02:26 10° W 23:04:39 38° WSW 23:04:39 38° WSW
ISS -1.2 23:03:14 10° NW 23:05:46 20° N 23:08:17 10° NE
Meteor 1-22 Rocket 4.1 23:00:58 10° N 23:06:19 69° ENE 23:08:09 41° SSE
Helios 1A 4.2 23:04:44 23° SW 23:06:33 34° W 23:10:24 10° NNW
Okean 2 4.5 23:04:23 19° SW 23:07:01 41° WNW 23:11:00 10° N
YAOGAN 11 4.1 23:10:27 49° SSE 23:11:40 89° E 23:16:15 10° NNW
Cosmos 2142 Rocket 4.4 23:10:31 35° S 23:13:16 72° E 23:19:29 10° NNE
Mayak 1.1 23:12:39 10° ENE 23:13:37 12° E 23:13:37 12° E
Cosmos 2084 Rocket 4.3 23:11:18 10° NNW 23:15:03 37° NE 23:16:04 31° E
CZ-2C R/B 2.9 23:11:57 10° NNE 23:17:31 57° E 23:19:09 42° SSE
Cosmos 2360 Rocket 4.0 23:15:11 10° NW 23:19:22 22° W 23:22:32 14° SW
ASTRO F (AKARI) 4.3 23:17:57 10° NNE 23:21:11 81° WNW 23:21:11 81° WNW
H-2A R/B 4.3 23:20:40 12° E 23:21:54 13° ENE 23:23:58 10° NNE
Cosmos 2195 Rocket 4.4 23:16:59 10° N 23:23:09 81° W 23:25:47 37° S
Cosmos 2219 Rocket 2.2 23:17:39 10° NNW 23:23:13 69° WSW 23:25:04 42° S
Cosmos 1627 Rocket 4.4 23:17:49 10° N 23:24:01 84° W 23:26:32 38° S
Cosmos 1428 Rocket 4.4 23:19:41 10° N 23:25:49 72° E 23:28:00 41° SSE
Spot 4 4.0 23:27:18 49° SE 23:28:23 63° ENE 23:33:12 10° N
Cosmos 1892 Rocket 3.4 23:28:48 64° S 23:29:27 86° ESE 23:33:50 10° N
USA 234 4.4 23:23:24 10° NE 23:29:33 45° NNW 23:35:42 10° W
Helios 1B rocket 3.9 23:25:49 10° N 23:29:34 34° WNW 23:31:58 18° WSW
Cosmos 1634 Rocket 4.2 23:27:33 29° SSW 23:31:01 72° W 23:37:22 10° N
Cosmos 1805 3.1 23:27:06 10° N 23:31:02 75° E 23:31:09 74° E
Cosmos 1842 3.2 23:31:33 68° E 23:31:33 68° E 23:35:24 10° NNE
SJ 16-02 3.6 23:29:53 10° WNW 23:32:42 17° W 23:34:28 13° WSW
Cosmos 192 4.4 23:34:46 39° SW 23:36:34 74° WNW 23:41:31 10° NNE
Cosmos 1470 4.1 23:33:36 10° NNE 23:36:52 27° ENE 23:36:52 27° ENE
COSMOS 2455 2.9 23:37:08 46° SSE 23:38:27 55° ESE 23:44:20 10° NE
Cosmos 2228 2.9 23:34:41 10° N 23:38:59 80° W 23:39:27 69° SSW
CZ-2C R/B 3.5 23:38:16 39° SSW 23:40:04 59° W 23:45:39 10° NNW
ADEOS Rocket 4.1 23:39:25 10° NE 23:43:45 23° E 23:44:05 23° E
Cosmos 1538 Rocket 3.9 23:44:58 53° S 23:46:12 84° ESE 23:51:29 10° NNE
Cosmos 1726 Rocket 4.1 23:43:07 10° NNW 23:47:24 50° W 23:48:06 45° SW
Lacrosse 5 rocket 3.9 23:49:12 10° WSW 23:49:25 10° WSW 23:49:25 10° WSW
Cosmos 2333 Rocket 2.7 23:44:46 10° NW 23:50:14 48° WSW 23:51:42 39° SSW
ERBS 3.4 23:47:21 10° NW 23:50:27 39° NNE 23:50:27 39° NNE
Intercosmos 25 3.6 23:52:01 60° WSW 23:52:23 63° W 23:55:47 10° N
SL-16 R/B 2.9 23:47:14 10° NNW 23:52:40 44° ENE 23:54:39 32° ESE
COSMOS 2428 4.0 23:48:12 10° NW 23:52:57 28° WSW 23:54:39 24° SW
Cosmos 923 Rocket 4.5 23:52:56 43° ESE 23:53:06 43° ESE 23:58:03 10° NNE
Cosmos 1680 Rocket 4.4 23:53:51 33° E 23:53:51 33° E 23:58:20 10° NE
